GW0206 Weather Reports


Display with metric or nautical units.
time (UTC)temp
F
wind
direction
speed
MPH
gust
MPH
rain 1hr
in
rain 24hr
in
rain mn
in
humidity
%
barometer
mb
20260503232003 57 44 8.0 16.0 0.00 0.00 0.00 47 1013.1
20260503231503 57 116 7.0 18.0 0.00 0.00 0.00 47 1013.1
20260503231003 57 70 6.0 18.0 0.00 0.00 0.00 47 1013.1
20260503230503 57 71 9.0 18.0 0.00 0.00 0.00 45 1013.0
20260503230004 58 110 8.0 18.0 0.00 0.00 0.00 45 1013.0
20260503225505 58 38 10.0 17.0 0.00 0.00 0.00 46 1012.9
20260503225005 58 76 10.0 21.0 0.00 0.00 0.00 46 1013.0
20260503224506 57 57 10.0 21.0 0.00 0.00 0.00 46 1013.0
20260503224002 57 44 11.0 25.0 0.00 0.00 0.00 46 1013.0
20260503223503 57 83 11.0 25.0 0.00 0.00 0.00 46 1012.9
20260503223008 57 65 8.0 15.0 0.00 0.00 0.00 46 1013.1
20260503222503 57 131 8.0 17.0 0.00 0.00 0.00 47 1013.1
20260503222003 57 101 8.0 17.0 0.00 0.00 0.00 47 1013.2
20260503221503 58 59 8.0 18.0 0.00 0.00 0.00 46 1013.1
20260503221003 58 69 11.0 18.0 0.00 0.00 0.00 45 1013.1
20260503220503 58 98 9.0 18.0 0.00 0.00 0.00 46 1013.1
20260503220007 58 40 9.0 18.0 0.00 0.00 0.00 44 1013.2
20260503215502 58 82 10.0 20.0 0.00 0.00 0.00 44 1013.1
20260503215002 59 101 12.0 20.0 0.00 0.00 0.00 43 1013.1
20260503214504 59 65 8.0 16.0 0.00 0.00 0.00 46 1013.2
20260503214003 59 82 6.0 19.0 0.00 0.00 0.00 44 1013.2
20260503213506 59 102 11.0 20.0 0.00 0.00 0.00 44 1013.2
20260503213006 58 114 11.0 20.0 0.00 0.00 0.00 44 1013.2
20260503212504 58 104 9.0 21.0 0.00 0.00 0.00 44 1013.2
20260503212004 58 87 8.0 23.0 0.00 0.00 0.00 44 1013.2
20260503211506 58 75 11.0 24.0 0.00 0.00 0.00 45 1013.2
20260503211003 58 55 8.0 24.0 0.00 0.00 0.00 45 1013.2
20260503210507 59 69 10.0 20.0 0.00 0.00 0.00 43 1013.3
20260503210006 59 63 10.0 18.0 0.00 0.00 0.00 44 1013.2
20260503205503 59 40 12.0 20.0 0.00 0.00 0.00 43 1013.1
20260503205004 59 59 13.0 20.0 0.00 0.00 0.00 43 1013.2
20260503204516 60 46 11.0 20.0 0.00 0.00 0.00 44 1013.1
20260503204004 60 101 9.0 20.0 0.00 0.00 0.00 42 1013.2
20260503203504 60 69 9.0 19.0 0.00 0.00 0.00 43 1013.2
20260503203007 59 90 11.0 23.0 0.00 0.00 0.00 46 1013.3
20260503202503 59 57 12.0 23.0 0.00 0.00 0.00 44 1013.3
20260503202004 59 81 9.0 22.0 0.00 0.00 0.00 44 1013.3
20260503201509 60 50 12.0 22.0 0.00 0.00 0.00 43 1013.5
20260503201004 60 53 10.0 19.0 0.00 0.00 0.00 43 1013.5
20260503200504 61 50 9.0 20.0 0.00 0.00 0.00 41 1013.5
20260503200008 61 97 12.0 20.0 0.00 0.00 0.00 44 1013.7
20260503195504 60 64 10.0 21.0 0.00 0.00 0.00 45 1013.8
20260503195004 59 42 12.0 21.0 0.00 0.00 0.00 47 1014.0
20260503194508 58 96 10.0 18.0 0.00 0.00 0.00 44 1014.0
20260503194005 59 49 7.0 20.0 0.00 0.00 0.00 44 1014.1
20260503193505 59 56 13.0 20.0 0.00 0.00 0.00 44 1014.1
20260503193013 59 92 8.0 19.0 0.00 0.00 0.00 43 1014.3
20260503192505 60 32 9.0 20.0 0.00 0.00 0.00 44 1014.4
20260503192004 60 108 12.0 20.0 0.00 0.00 0.00 44 1014.3
20260503191527 59 57 10.0 20.0 0.00 0.00 0.00 45 1014.3
20260503191004 59 65 12.0 20.0 0.00 0.00 0.00 47 1014.4
20260503190505 60 117 8.0 20.0 0.00 0.00 0.00 42 1014.5
20260503190008 60 105 9.0 22.0 0.00 0.00 0.00 45 1014.6
20260503185504 59 35 11.0 22.0 0.00 0.00 0.00 41 1014.7
20260503185005 60 117 11.0 20.0 0.00 0.00 0.00 41 1014.7
20260503184510 60 102 8.0 16.0 0.00 0.00 0.00 46 1014.9
20260503184006 60 53 6.0 18.0 0.00 0.00 0.00 45 1014.9
20260503183508 59 101 9.0 18.0 0.00 0.00 0.00 42 1014.9
20260503183009 59 98 10.0 17.0 0.00 0.00 0.00 41 1014.9
20260503182503 59 54 10.0 19.0 0.00 0.00 0.00 43 1014.9
20260503182005 59 73 9.0 20.0 0.00 0.00 0.00 45 1015.0
20260503181514 58 73 10.0 21.0 0.00 0.00 0.00 46 1015.0
20260503181005 59 101 12.0 21.0 0.00 0.00 0.00 43 1015.0
20260503180507 60 50 7.0 16.0 0.00 0.00 0.00 45 1015.1
20260503180014 60 109 8.0 18.0 0.00 0.00 0.00 47 1015.2
20260503175507 59 113 10.0 18.0 0.00 0.00 0.00 46 1015.2
20260503175002 59 40 10.0 20.0 0.00 0.00 0.00 45 1015.2
20260503174513 58 129 8.0 20.0 0.00 0.00 0.00 49 1015.3
20260503174006 59 79 7.0 19.0 0.00 0.00 0.00 47 1015.3
20260503173503 59 111 12.0 19.0 0.00 0.00 0.00 45 1015.3
20260503173011 59 88 7.0 18.0 0.00 0.00 0.00 49 1015.4
20260503172507 59 63 11.0 18.0 0.00 0.00 0.00 47 1015.4
20260503172006 58 36 6.0 20.0 0.00 0.00 0.00 50 1015.6
20260503171516 58 114 13.0 20.0 0.00 0.00 0.00 47 1015.8
20260503171003 58 60 10.0 19.0 0.00 0.00 0.00 52 1015.7
20260503170503 57 61 8.0 17.0 0.00 0.00 0.00 49 1015.8
20260503151002 51 131 7.0 18.0 0.00 0.00 0.00 55 1016.9
20260503150505 51 73 7.0 18.0 0.00 0.00 0.00 55 1017.0
20260503131003 45 60 5.0 10.0 0.00 0.00 0.00 66 1017.4
20260503130503 44 84 4.0 10.0 0.00 0.00 0.00 68 1017.3
20260503110510 32 61 3.0 5.0 0.00 0.00 0.00 92 1016.5
20260503090508 31 82 0.0 2.0 0.00 0.00 0.00 90 1016.2
20260503081524 33 84 1.0 3.0 0.00 0.01 0.00 89 1016.2
20260503081004 33 81 1.0 3.0 0.00 0.01 0.00 89 1016.2
20260503080503 33 81 1.0 3.0 0.00 0.01 0.00 89 1016.2
20260503072502 34 84 1.0 3.0 0.00 0.01 0.00 86 1016.2
20260503072004 34 84 1.0 3.0 0.00 0.01 0.00 86 1016.2
20260503071516 34 80 1.0 4.0 0.00 0.01 0.00 86 1016.2
20260503071004 35 63 2.0 4.0 0.00 0.01 0.00 86 1016.2
20260503070506 35 80 2.0 4.0 0.00 0.01 0.00 86 1016.1
20260503055006 37 85 1.0 3.0 0.00 0.02 0.00 83 1016.4
20260503054523 37 56 1.0 3.0 0.00 0.02 0.00 82 1016.4
20260503054003 37 56 1.0 4.0 0.00 0.02 0.00 83 1016.4
20260503053504 37 80 1.0 4.0 0.00 0.02 0.00 83 1016.4
20260503053026 37 74 1.0 4.0 0.00 0.02 0.00 83 1016.4
20260503052509 37 65 2.0 4.0 0.00 0.02 0.00 84 1016.4
20260503052003 37 76 1.0 3.0 0.00 0.02 0.00 83 1016.4
20260503051511 37 76 1.0 3.0 0.00 0.02 0.00 83 1016.4
20260503051004 37 76 0.0 3.0 0.00 0.02 0.00 83 1016.5
20260503050503 37 76 0.0 3.0 0.00 0.02 0.00 83 1016.5
20260503050013 37 76 1.0 3.0 0.00 0.02 0.00 83 1016.6
20260503045503 37 76 1.0 3.0 0.00 0.02 0.00 83 1016.6
20260503045004 37 91 1.0 3.0 0.00 0.02 0.00 83 1016.6
20260503044515 37 80 0.0 2.0 0.00 0.02 0.00 84 1016.6
20260503044007 37 80 0.0 2.0 0.00 0.02 0.00 84 1016.6
20260503043507 37 77 1.0 3.0 0.00 0.02 0.00 83 1016.6
20260503043036 37 77 2.0 3.0 0.00 0.02 0.00 83 1016.5
20260503042508 37 90 1.0 3.0 0.00 0.02 0.00 83 1016.7
20260503042008 37 92 1.0 3.0 0.00 0.02 0.00 83 1016.6
20260503041526 37 92 1.0 3.0 0.00 0.02 0.00 84 1016.7
20260503041007 37 82 1.0 3.0 0.00 0.02 0.00 83 1016.6
20260503040503 37 71 1.0 3.0 0.00 0.02 0.00 83 1016.7
20260503040025 37 71 1.0 3.0 0.00 0.02 0.00 83 1016.7
20260503035504 37 93 1.0 2.0 0.00 0.02 0.02 83 1016.8
20260503035003 37 144 0.0 0.0 0.00 0.02 0.02 83 1016.7
20260503034513 37 144 0.0 0.0 0.00 0.02 0.02 84 1016.7
20260503034003 37 144 0.0 0.0 0.00 0.02 0.02 84 1016.7
20260503033504 37 144 0.0 2.0 0.00 0.02 0.02 84 1016.7
20260503033020 37 144 0.0 2.0 0.00 0.02 0.02 84 1016.7
20260503032508 37 144 0.0 2.0 0.00 0.02 0.02 84 1016.7
20260503032011 37 144 0.0 2.0 0.00 0.02 0.02 84 1016.8
20260503031514 37 144 0.0 2.0 0.00 0.02 0.02 84 1016.8
20260503031007 37 144 0.0 2.0 0.00 0.02 0.02 84 1016.8
20260503030507 37 144 0.0 2.0 0.00 0.02 0.02 83 1016.8
20260503030026 37 144 0.0 2.0 0.00 0.02 0.02 83 1016.8
20260503025503 37 144 0.0 2.0 0.00 0.02 0.02 83 1016.9
20260503025008 37 144 0.0 2.0 0.00 0.02 0.02 83 1016.9
20260503024529 37 144 0.0 2.0 0.00 0.02 0.02 83 1016.9
20260503024010 37 144 0.0 1.0 0.00 0.02 0.02 82 1017.0
20260503023508 37 144 0.0 1.0 0.00 0.02 0.02 82 1017.0
20260503023015 37 144 0.0 2.0 0.00 0.02 0.02 81 1017.1
20260503022505 37 144 0.0 2.0 0.00 0.02 0.02 81 1017.1
20260503022011 37 144 0.0 1.0 0.00 0.02 0.02 81 1017.1
20260503021539 37 144 0.0 2.0 0.00 0.02 0.02 80 1017.0
20260503021009 37 144 0.0 2.0 0.00 0.02 0.02 80 1017.1
20260503020509 37 144 0.0 1.0 0.00 0.02 0.02 79 1017.1
20260503020018 37 144 0.0 2.0 0.00 0.02 0.02 78 1017.1
20260503015513 37 144 0.0 2.0 0.00 0.02 0.02 78 1017.0
20260503015004 38 144 0.0 1.0 0.00 0.02 0.02 77 1017.0
20260503014511 38 144 0.0 1.0 0.00 0.02 0.02 77 1017.0
20260503014003 38 144 0.0 2.0 0.00 0.02 0.02 77 1017.0
20260503013504 38 144 0.0 2.0 0.00 0.02 0.02 76 1017.0
20260503013008 39 144 0.0 2.0 0.00 0.02 0.02 76 1017.0
20260503012505 39 144 0.0 2.0 0.00 0.02 0.02 76 1017.0
20260503011959 39 144 0.0 2.0 0.00 0.02 0.02 76 1016.9
20260503011506 39 144 1.0 2.0 0.00 0.02 0.02 75 1016.9
20260503011007 39 144 0.0 1.0 0.00 0.02 0.02 74 1016.9
20260503010507 39 144 0.0 1.0 0.00 0.02 0.02 75 1016.8
20260503010004 39 144 0.0 1.0 0.00 0.02 0.02 75 1016.8
20260503005504 40 144 0.0 2.0 0.00 0.02 0.02 75 1016.8
20260503005003 40 144 0.0 2.0 0.00 0.02 0.02 74 1016.9
20260503004506 40 144 0.0 1.0 0.00 0.02 0.02 74 1016.9
20260503004001 40 144 0.0 1.0 0.00 0.02 0.02 73 1016.7
20260503003501 40 144 0.0 2.0 0.00 0.02 0.02 73 1016.7
20260503003012 40 144 0.0 2.0 0.00 0.02 0.02 72 1016.7
20260503002502 40 144 0.0 1.0 0.00 0.02 0.02 71 1016.9
20260503002004 41 144 0.0 2.0 0.00 0.02 0.02 70 1016.8
20260503001514 41 144 0.0 3.0 0.00 0.02 0.02 70 1016.8
20260503001004 41 144 0.0 3.0 0.00 0.02 0.02 70 1016.8
20260503000503 41 144 1.0 3.0 0.00 0.02 0.02 71 1016.7
20260503000011 41 158 0.0 2.0 0.00 0.02 0.02 71 1016.6
20260502235505 41 159 0.0 5.0 0.00 0.02 0.02 70 1016.5
20260502235009 41 159 0.0 5.0 0.00 0.02 0.02 70 1016.5
20260502234507 41 167 0.0 1.0 0.00 0.02 0.02 69 1016.5
20260502234005 41 155 0.0 2.0 0.00 0.02 0.02 70 1016.5
20260502233502 41 149 0.0 2.0 0.00 0.02 0.02 68 1016.5
20260502233008 41 149 0.0 2.0 0.00 0.02 0.02 67 1016.5
20260502232501 42 150 0.0 2.0 0.00 0.02 0.02 67 1016.6